Tracking 35280 objects as of 7-Sep-2026
HD Live streaming from Space Station
objects crossing your sky now

YAOGAN 42-01

Track YAOGAN 42-01 now!
10-day predictions


NORAD ID: 59395
Int'l Code: 2024-063A
Launch date: April 2, 2024
Source: People's Republic of China (PRC)
Launch site: Xichang Space Center, China (XSC)
Your satellite tracking list
Your tracking list is empty




NASA's NSSDC Master Catalog

Two Line Element Set (TLE):
1 59395U 24063A   26250.62395105  .00005912  00000-0  24671-3 0  9992
2 59395  34.9996 327.3852 0003398 333.8441  26.2102 15.23003684135422
Source of the keplerian elements: AFSPC